QPF
0.00 0.01 0.01 0.01 0.00 0.01 0.00 0.01 0.00 0.00 0.00 0.00 0.00 0.01 0.02 0.03 0.04 0.05 0.05 0.04 0.03 0.01 0.01 0.01 0.01 0.01 0.01 0.01 0.01 0.01 0.02 0.03 0.03 0.02 0.02 0.03 0.03 0.04 0.04 0.04 0.03 0.04 0.03 0.02
0.00 0.00 0.01 0.00 0.00 0.01 0.01 0.01 0.01 0.00 0.00 0.00 0.00 0.00 0.01 0.02 0.02 0.02 0.03 0.03 0.02 0.02 0.01 0.02 0.01 0.01 0.01 0.01 0.01 0.01 0.01 0.02 0.03 0.03 0.03 0.03 0.03 0.03 0.04 0.05 0.05 0.04 0.03 0.02
0.00 0.00 0.00 0.01 0.01 0.01 0.01 0.01 0.00 0.00 0.00 0.00 0.01 0.01 0.01 0.02 0.02 0.01 0.02 0.02 0.03 0.02 0.02 0.02 0.01 0.01 0.01 0.01 0.01 0.01 0.01 0.01 0.02 0.03 0.03 0.03 0.03 0.03 0.02 0.03 0.04 0.04 0.03 0.03
0.00 0.00 0.00 0.00 0.00 0.00 0.00 0.00 0.00 0.00 0.01 0.01 0.02 0.02 0.01 0.01 0.01 0.02 0.02 0.02 0.02 0.02 0.02 0.02 0.01 0.01 0.01 0.01 0.01 0.01 0.01 0.01 0.01 0.01 0.02 0.03 0.03 0.03 0.03 0.03 0.04 0.04 0.04 0.04
0.02 0.00 0.00 0.00 0.00 0.00 0.00 0.01 0.01 0.01 0.01 0.01 0.02 0.02 0.01 0.01 0.01 0.03 0.04 0.02 0.02 0.02 0.02 0.02 0.01 0.01 0.01 0.01 0.01 0.02 0.01 0.01 0.01 0.01 0.01 0.02 0.02 0.02 0.03 0.03 0.03 0.04 0.03 0.04
0.02 0.01 0.01 0.00 0.00 0.00 0.00 0.01 0.01 0.02 0.02 0.02 0.01 0.01 0.01 0.00 0.01 0.01 0.02 0.02 0.02 0.02 0.01 0.01 0.02 0.02 0.02 0.01 0.01 0.01 0.02 0.02 0.01 0.01 0.01 0.01 0.01 0.01 0.01 0.01 0.02 0.02 0.03 0.04
0.01 0.01 0.01 0.00 0.00 0.00 0.01 0.01 0.02 0.02 0.02 0.01 0.01 0.01 0.00 0.00 0.00 0.01 0.01 0.02 0.02 0.02 0.02 0.02 0.03 0.03 0.04 0.02 0.01 0.00 0.01 0.02 0.02 0.01 0.01 0.01 0.00 0.00 0.01 0.01 0.01 0.01 0.01 0.02
0.01 0.01 0.01 0.00 0.00 0.00 0.01 0.01 0.01 0.02 0.01 0.01 0.01 0.01 0.00 0.00 0.00 0.00 0.01 0.01 0.02 0.02 0.02 0.03 0.03 0.03 0.04 0.04 0.02 0.01 0.02 0.02 0.02 0.02 0.01 0.01 0.00 0.00 0.00 0.01 0.00 0.01 0.01 0.01
0.01 0.01 0.01 0.00 0.00 0.00 0.00 0.00 0.00 0.01 0.01 0.01 0.01 0.01 0.00 0.00 0.00 0.00 0.00 0.01 0.01 0.02 0.02 0.02 0.02 0.03 0.03 0.03 0.03 0.03 0.03 0.03 0.02 0.02 0.01 0.01 0.01 0.01 0.01 0.01 0.01 0.01 0.00 0.00
0.01 0.01 0.00 0.00 0.01 0.00 0.00 0.00 0.01 0.01 0.01 0.02 0.01 0.01 0.01 0.00 0.00 0.00 0.00 0.00 0.01 0.02 0.01 0.02 0.02 0.02 0.03 0.03 0.03 0.03 0.03 0.04 0.04 0.02 0.01 0.01 0.01 0.01 0.01 0.02 0.01 0.01 0.00 0.00
0.02 0.01 0.00 0.00 0.00 0.00 0.00 0.00 0.01 0.01 0.02 0.03 0.02 0.01 0.01 0.00 0.00 0.01 0.00 0.00 0.00 0.01 0.02 0.02 0.02 0.02 0.03 0.03 0.03 0.04 0.04 0.04 0.04 0.04 0.03 0.02 0.01 0.01 0.02 0.02 0.02 0.01 0.00 0.00
0.02 0.01 0.00 0.00 0.00 0.00 0.00 0.00 0.01 0.01 0.01 0.02 0.03 0.04 0.02 0.01 0.00 0.01 0.00 0.00 0.00 0.01 0.02 0.02 0.02 0.03 0.03 0.03 0.04 0.05 0.05 0.05 0.05 0.05 0.04 0.02 0.01 0.01 0.01 0.02 0.02 0.01 0.01 0.00
0.01 0.02 0.01 0.01 0.00 0.00 0.00 0.00 0.00 0.00 0.01 0.01 0.02 0.03 0.02 0.01 0.01 0.01 0.01 0.01 0.01 0.01 0.01 0.02 0.01 0.01 0.02 0.02 0.02 0.03 0.04 0.04 0.05 0.05 0.04 0.03 0.02 0.02 0.02 0.02 0.02 0.01 0.01 0.01
0.01 0.01 0.01 0.01 0.01 0.00 0.00 0.00 0.00 0.00 0.01 0.01 0.02 0.01 0.01 0.02 0.01 0.01 0.02 0.01 0.01 0.01 0.01 0.02 0.01 0.01 0.01 0.02 0.01 0.01 0.02 0.03 0.04 0.05 0.06 0.03 0.02 0.03 0.04 0.04 0.03 0.02 0.02 0.01
0.01 0.01 0.01 0.01 0.01 0.01 0.00 0.00 0.00 0.00 0.00 0.01 0.01 0.00 0.01 0.01 0.02 0.02 0.02 0.02 0.01 0.01 0.02 0.01 0.01 0.01 0.02 0.02 0.02 0.02 0.02 0.02 0.04 0.05 0.07 0.05 0.03 0.03 0.04 0.04 0.03 0.02 0.01 0.01
0.01 0.01 0.01 0.01 0.01 0.01 0.01 0.00 0.00 0.01 0.00 0.01 0.01 0.01 0.01 0.02 0.02 0.02 0.02 0.04 0.03 0.02 0.01 0.01 0.01 0.01 0.02 0.02 0.01 0.01 0.02 0.03 0.03 0.04 0.06 0.06 0.06 0.05 0.04 0.04 0.02 0.02 0.02 0.02
0.01 0.00 0.00 0.01 0.01 0.01 0.01 0.01 0.01 0.01 0.01 0.01 0.01 0.01 0.02 0.02 0.03 0.03 0.03 0.04 0.04 0.02 0.01 0.01 0.01 0.00 0.00 0.01 0.00 0.00 0.01 0.01 0.01 0.02 0.03 0.04 0.05 0.05 0.05 0.05 0.04 0.03 0.03 0.04
0.00 0.00 0.00 0.01 0.02 0.02 0.02 0.01 0.01 0.02 0.02 0.01 0.02 0.02 0.02 0.02 0.02 0.02 0.02 0.03 0.03 0.02 0.01 0.01 0.00 0.00 0.00 0.00 0.00 0.00 0.00 0.00 0.00 0.01 0.02 0.03 0.03 0.03 0.03 0.04 0.04 0.04 0.04 0.04
0.01 0.01 0.01 0.01 0.02 0.02 0.01 0.01 0.01 0.02 0.02 0.02 0.02 0.02 0.02 0.02 0.02 0.02 0.02 0.02 0.02 0.02 0.01 0.01 0.01 0.00 0.00 0.00 0.00 0.00 0.00 0.00 0.00 0.00 0.00 0.01 0.02 0.03 0.04 0.05 0.04 0.04 0.04 0.03
0.01 0.01 0.01 0.01 0.02 0.03 0.01 0.01 0.01 0.01 0.01 0.02 0.02 0.02 0.02 0.01 0.02 0.02 0.02 0.01 0.02 0.02 0.02 0.01 0.01 0.01 0.01 0.01 0.00 0.00 0.00 0.00 0.00 0.00 0.00 0.01 0.01 0.02 0.04 0.06 0.07 0.05 0.03 0.03
0.00 0.00 0.01 0.01 0.02 0.02 0.01 0.01 0.01 0.01 0.02 0.01 0.02 0.02 0.02 0.02 0.02 0.02 0.02 0.02 0.01 0.02 0.02 0.02 0.01 0.01 0.02 0.01 0.00 0.00 0.00 0.00 0.00 0.00 0.00 0.00 0.01 0.02 0.03 0.04 0.06 0.08 0.06 0.04
0.00 0.00 0.01 0.02 0.02 0.02 0.01 0.02 0.02 0.02 0.01 0.01 0.01 0.02 0.02 0.01 0.01 0.01 0.01 0.02 0.02 0.02 0.02 0.01 0.01 0.01 0.02 0.01 0.00 0.00 0.00 0.00 0.00 0.00 0.00 0.00 0.00 0.01 0.02 0.03 0.03 0.05 0.06 0.06
0.01 0.01 0.01 0.02 0.03 0.02 0.02 0.02 0.02 0.02 0.01 0.01 0.01 0.01 0.01 0.01 0.01 0.01 0.01 0.02 0.02 0.02 0.01 0.01 0.01 0.01 0.01 0.01 0.01 0.01 0.01 0.01 0.01 0.01 0.00 0.00 0.00 0.00 0.01 0.03 0.03 0.03 0.03 0.04
0.01 0.01 0.01 0.01 0.01 0.01 0.01 0.01 0.01 0.01 0.02 0.01 0.01 0.02 0.01 0.01 0.01 0.01 0.01 0.01 0.01 0.01 0.01 0.01 0.01 0.01 0.02 0.01 0.01 0.01 0.01 0.01 0.01 0.01 0.01 0.00 0.01 0.01 0.01 0.02 0.04 0.03 0.02 0.02
0.00 0.01 0.01 0.00 0.01 0.01 0.01 0.01 0.01 0.02 0.02 0.02 0.02 0.03 0.03 0.01 0.01 0.01 0.00 0.00 0.01 0.01 0.01 0.01 0.01 0.01 0.02 0.02 0.02 0.02 0.02 0.02 0.02 0.02 0.02 0.01 0.01 0.02 0.02 0.02 0.02 0.03 0.02 0.02
0.00 0.00 0.01 0.00 0.00 0.00 0.00 0.01 0.01 0.02 0.02 0.02 0.02 0.04 0.03 0.01 0.01 0.01 0.00 0.00 0.00 0.01 0.01 0.01 0.01 0.01 0.02 0.03 0.04 0.04 0.03 0.02 0.02 0.02 0.02 0.02 0.02 0.01 0.02 0.02 0.02 0.02 0.02 0.02
MSLP
1013.81 1014.64 1015.28 1015.72 1015.98 1016.10 1016.15 1016.15 1016.16 1016.18 1016.21 1016.22 1016.21 1016.17 1016.10 1016.02 1015.97 1015.96 1016.00 1016.10 1016.23 1016.37 1016.49 1016.55 1016.54 1016.45 1016.32 1016.18 1016.06 1016.00 1016.03 1016.15 1016.34 1016.57 1016.80 1016.99 1017.12 1017.16 1017.14 1017.05 1016.94 1016.83 1016.75 1016.73
1014.42 1015.05 1015.48 1015.74 1015.87 1015.94 1016.00 1016.10 1016.24 1016.40 1016.55 1016.65 1016.67 1016.61 1016.47 1016.29 1016.13 1016.02 1016.01 1016.08 1016.23 1016.42 1016.59 1016.69 1016.71 1016.64 1016.49 1016.32 1016.18 1016.10 1016.14 1016.29 1016.53 1016.83 1017.12 1017.37 1017.53 1017.59 1017.54 1017.41 1017.24 1017.08 1016.96 1016.91
1014.78 1015.19 1015.41 1015.50 1015.53 1015.59 1015.71 1015.95 1016.26 1016.60 1016.90 1017.10 1017.16 1017.06 1016.83 1016.54 1016.25 1016.03 1015.93 1015.97 1016.12 1016.35 1016.57 1016.74 1016.80 1016.76 1016.63 1016.45 1016.30 1016.22 1016.26 1016.43 1016.72 1017.06 1017.41 1017.70 1017.88 1017.94 1017.88 1017.72 1017.51 1017.31 1017.16 1017.09
1014.92 1015.11 1015.14 1015.09 1015.08 1015.17 1015.42 1015.82 1016.34 1016.87 1017.33 1017.63 1017.70 1017.55 1017.22 1016.77 1016.33 1015.97 1015.76 1015.74 1015.88 1016.13 1016.41 1016.64 1016.77 1016.78 1016.69 1016.54 1016.39 1016.32 1016.37 1016.55 1016.85 1017.23 1017.60 1017.92 1018.12 1018.19 1018.11 1017.94 1017.72 1017.50 1017.34 1017.25
1014.89 1014.89 1014.77 1014.65 1014.64 1014.82 1015.22 1015.83 1016.56 1017.29 1017.89 1018.25 1018.32 1018.09 1017.62 1017.00 1016.37 1015.84 1015.51 1015.40 1015.51 1015.77 1016.10 1016.40 1016.61 1016.69 1016.65 1016.54 1016.42 1016.36 1016.41 1016.60 1016.90 1017.28 1017.67 1018.00 1018.22 1018.29 1018.23 1018.06 1017.85 1017.63 1017.47 1017.38
1014.76 1014.61 1014.40 1014.26 1014.30 1014.61 1015.19 1016.01 1016.94 1017.83 1018.54 1018.94 1018.98 1018.64 1018.01 1017.20 1016.37 1015.67 1015.19 1014.98 1015.04 1015.30 1015.67 1016.04 1016.33 1016.49 1016.52 1016.46 1016.37 1016.32 1016.37 1016.55 1016.85 1017.21 1017.59 1017.93 1018.15 1018.24 1018.20 1018.06 1017.87 1017.68 1017.54 1017.46
1014.58 1014.32 1014.07 1013.96 1014.10 1014.55 1015.31 1016.31 1017.40 1018.42 1019.20 1019.61 1019.58 1019.12 1018.33 1017.34 1016.33 1015.45 1014.84 1014.53 1014.54 1014.79 1015.19 1015.61 1015.97 1016.20 1016.30 1016.29 1016.24 1016.20 1016.25 1016.41 1016.68 1017.03 1017.39 1017.71 1017.95 1018.06 1018.05 1017.95 1017.81 1017.66 1017.55 1017.50
1014.34 1014.03 1013.79 1013.75 1014.00 1014.59 1015.50 1016.64 1017.85 1018.94 1019.73 1020.11 1020.01 1019.45 1018.52 1017.38 1016.22 1015.22 1014.49 1014.11 1014.07 1014.31 1014.72 1015.19 1015.60 1015.89 1016.04 1016.07 1016.04 1016.02 1016.06 1016.19 1016.43 1016.75 1017.09 1017.40 1017.64 1017.78 1017.81 1017.75 1017.66 1017.55 1017.49 1017.47
1014.04 1013.73 1013.54 1013.58 1013.93 1014.63 1015.65 1016.87 1018.12 1019.22 1020.00 1020.33 1020.15 1019.51 1018.50 1017.27 1016.04 1014.97 1014.19 1013.77 1013.70 1013.93 1014.34 1014.82 1015.26 1015.58 1015.76 1015.82 1015.81 1015.79 1015.82 1015.93 1016.15 1016.43 1016.75 1017.05 1017.29 1017.44 1017.51 1017.50 1017.45 1017.39 1017.36 1017.37
1013.65 1013.39 1013.27 1013.39 1013.83 1014.60 1015.65 1016.88 1018.11 1019.16 1019.88 1020.15 1019.93 1019.25 1018.22 1017.00 1015.78 1014.72 1013.95 1013.54 1013.47 1013.68 1014.09 1014.55 1014.99 1015.31 1015.51 1015.58 1015.58 1015.55 1015.58 1015.67 1015.86 1016.12 1016.42 1016.71 1016.95 1017.12 1017.21 1017.23 1017.21 1017.19 1017.18 1017.21
1013.18 1013.01 1012.98 1013.18 1013.66 1014.44 1015.46 1016.62 1017.75 1018.70 1019.33 1019.54 1019.29 1018.64 1017.67 1016.54 1015.42 1014.47 1013.78 1013.42 1013.37 1013.59 1013.97 1014.41 1014.82 1015.12 1015.30 1015.37 1015.36 1015.34 1015.36 1015.46 1015.63 1015.88 1016.16 1016.44 1016.68 1016.85 1016.95 1016.99 1016.99 1016.97 1016.98 1017.01
1012.67 1012.61 1012.68 1012.94 1013.45 1014.18 1015.10 1016.12 1017.09 1017.89 1018.40 1018.55 1018.31 1017.72 1016.88 1015.91 1014.98 1014.19 1013.64 1013.38 1013.38 1013.61 1013.97 1014.37 1014.72 1014.98 1015.13 1015.19 1015.19 1015.18 1015.21 1015.31 1015.49 1015.74 1016.01 1016.28 1016.51 1016.68 1016.78 1016.81 1016.80 1016.78 1016.77 1016.79
1012.21 1012.28 1012.45 1012.76 1013.24 1013.88 1014.64 1015.46 1016.22 1016.83 1017.20 1017.28 1017.05 1016.57 1015.89 1015.14 1014.43 1013.86 1013.50 1013.36 1013.44 1013.68 1014.02 1014.37 1014.67 1014.89 1015.01 1015.06 1015.07 1015.08 1015.14 1015.27 1015.47 1015.72 1015.99 1016.26 1016.47 1016.62 1016.70 1016.71 1016.68 1016.64 1016.61 1016.60
1011.87 1012.09 1012.35 1012.68 1013.11 1013.61 1014.18 1014.75 1015.27 1015.66 1015.86 1015.86 1015.65 1015.27 1014.78 1014.26 1013.80 1013.47 1013.30 1013.31 1013.47 1013.74 1014.06 1014.37 1014.62 1014.80 1014.91 1014.96 1014.99 1015.05 1015.15 1015.32 1015.55 1015.82 1016.10 1016.35 1016.55 1016.68 1016.73 1016.71 1016.65 1016.58 1016.52 1016.49
1011.72 1012.07 1012.42 1012.75 1013.10 1013.45 1013.79 1014.10 1014.34 1014.49 1014.52 1014.42 1014.21 1013.92 1013.60 1013.31 1013.08 1012.98 1013.00 1013.15 1013.40 1013.71 1014.03 1014.31 1014.54 1014.71 1014.82 1014.89 1014.97 1015.08 1015.24 1015.46 1015.73 1016.02 1016.31 1016.55 1016.73 1016.83 1016.84 1016.80 1016.71 1016.61 1016.53 1016.47
1011.79 1012.24 1012.64 1012.95 1013.20 1013.38 1013.49 1013.53 1013.51 1013.41 1013.26 1013.06 1012.83 1012.60 1012.42 1012.31 1012.29 1012.38 1012.58 1012.86 1013.19 1013.55 1013.88 1014.17 1014.40 1014.58 1014.72 1014.85 1014.99 1015.17 1015.40 1015.68 1015.99 1016.30 1016.58 1016.81 1016.97 1017.04 1017.03 1016.97 1016.86 1016.75 1016.65 1016.59
1012.00 1012.52 1012.93 1013.20 1013.34 1013.35 1013.25 1013.04 1012.77 1012.45 1012.12 1011.81 1011.55 1011.36 1011.27 1011.30 1011.44 1011.69 1012.03 1012.42 1012.84 1013.25 1013.62 1013.94 1014.20 1014.43 1014.62 1014.83 1015.05 1015.31 1015.61 1015.94 1016.28 1016.60 1016.89 1017.10 1017.24 1017.29 1017.27 1017.19 1017.08 1016.97 1016.88 1016.82
1012.25 1012.78 1013.16 1013.37 1013.40 1013.25 1012.96 1012.56 1012.08 1011.58 1011.11 1010.70 1010.40 1010.23 1010.20 1010.32 1010.58 1010.94 1011.39 1011.87 1012.36 1012.83 1013.26 1013.63 1013.96 1014.25 1014.53 1014.82 1015.13 1015.46 1015.83 1016.20 1016.57 1016.90 1017.17 1017.37 1017.49 1017.53 1017.51 1017.44 1017.35 1017.26 1017.19 1017.15
1012.40 1012.86 1013.17 1013.30 1013.22 1012.96 1012.53 1011.99 1011.37 1010.75 1010.19 1009.72 1009.39 1009.23 1009.24 1009.43 1009.76 1010.20 1010.72 1011.27 1011.83 1012.36 1012.85 1013.30 1013.70 1014.08 1014.45 1014.82 1015.21 1015.62 1016.03 1016.44 1016.82 1017.15 1017.41 1017.59 1017.70 1017.74 1017.73 1017.68 1017.62 1017.57 1017.54 1017.53
1012.31 1012.66 1012.87 1012.89 1012.72 1012.38 1011.87 1011.26 1010.59 1009.93 1009.33 1008.85 1008.53 1008.39 1008.44 1008.66 1009.04 1009.53 1010.10 1010.71 1011.32 1011.91 1012.46 1012.97 1013.46 1013.92 1014.37 1014.83 1015.28 1015.74 1016.19 1016.62 1017.00 1017.32 1017.56 1017.74 1017.84 1017.89 1017.90 1017.89 1017.87 1017.87 1017.88 1017.90
1011.93 1012.12 1012.19 1012.11 1011.88 1011.49 1010.97 1010.37 1009.72 1009.09 1008.53 1008.10 1007.82 1007.72 1007.81 1008.07 1008.48 1009.00 1009.60 1010.23 1010.88 1011.51 1012.12 1012.70 1013.25 1013.78 1014.30 1014.82 1015.33 1015.82 1016.29 1016.71 1017.09 1017.39 1017.63 1017.80 1017.91 1017.97 1018.01 1018.03 1018.07 1018.10 1018.15 1018.20
1011.25 1011.26 1011.19 1011.02 1010.74 1010.35 1009.88 1009.34 1008.79 1008.26 1007.81 1007.47 1007.27 1007.24 1007.37 1007.67 1008.11 1008.64 1009.25 1009.90 1010.57 1011.22 1011.87 1012.48 1013.08 1013.66 1014.23 1014.78 1015.32 1015.83 1016.30 1016.72 1017.08 1017.37 1017.60 1017.77 1017.89 1017.98 1018.05 1018.11 1018.18 1018.25 1018.33 1018.39
1010.35 1010.17 1009.97 1009.73 1009.43 1009.09 1008.70 1008.28 1007.87 1007.49 1007.18 1006.97 1006.89 1006.94 1007.14 1007.47 1007.92 1008.46 1009.07 1009.71 1010.38 1011.04 1011.69 1012.33 1012.95 1013.55 1014.13 1014.70 1015.24 1015.75 1016.22 1016.63 1016.98 1017.27 1017.50 1017.67 1017.81 1017.92 1018.02 1018.11 1018.21 1018.30 1018.38 1018.45
1009.34 1009.00 1008.69 1008.40 1008.11 1007.84 1007.56 1007.29 1007.05 1006.84 1006.70 1006.63 1006.67 1006.81 1007.07 1007.43 1007.89 1008.43 1009.02 1009.64 1010.29 1010.93 1011.58 1012.21 1012.82 1013.42 1014.00 1014.56 1015.10 1015.59 1016.05 1016.45 1016.80 1017.09 1017.32 1017.52 1017.68 1017.81 1017.93 1018.04 1018.14 1018.23 1018.31 1018.35
1008.34 1007.88 1007.49 1007.18 1006.93 1006.74 1006.58 1006.46 1006.38 1006.34 1006.36 1006.43 1006.57 1006.80 1007.10 1007.49 1007.95 1008.47 1009.04 1009.63 1010.25 1010.87 1011.48 1012.09 1012.68 1013.26 1013.83 1014.37 1014.88 1015.36 1015.80 1016.20 1016.55 1016.84 1017.10 1017.31 1017.49 1017.64 1017.77 1017.88 1017.98 1018.06 1018.11 1018.12
1007.44 1006.90 1006.49 1006.19 1005.99 1005.88 1005.84 1005.85 1005.91 1006.01 1006.15 1006.33 1006.56 1006.84 1007.18 1007.57 1008.03 1008.52 1009.06 1009.62 1010.20 1010.78 1011.37 1011.94 1012.50 1013.06 1013.59 1014.11 1014.60 1015.06 1015.49 1015.88 1016.24 1016.55 1016.82 1017.05 1017.24 1017.41 1017.54 1017.65 1017.73 1017.78 1017.79 1017.77
Thickness
5749 5732 5723 5729 5734 5733 5730 5723 5720 5728 5743 5736 5727 5727 5733 5739 5739 5735 5733 5733 5735 5737 5742 5744 5746 5745 5742 5740 5738 5735 5733 5731 5729 5726 5723 5719 5717 5717 5716 5716 5716 5715 5713 5712
5726 5722 5736 5742 5742 5736 5729 5720 5719 5729 5741 5735 5726 5725 5733 5737 5737 5738 5736 5734 5735 5735 5737 5739 5740 5740 5739 5737 5735 5732 5731 5729 5727 5725 5722 5719 5716 5714 5714 5713 5712 5710 5709 5708
5718 5728 5744 5739 5732 5727 5724 5720 5720 5722 5730 5732 5723 5714 5723 5733 5737 5739 5739 5738 5738 5737 5735 5735 5735 5736 5735 5734 5733 5732 5729 5727 5726 5724 5720 5716 5713 5710 5708 5707 5706 5705 5705 5703
5722 5735 5736 5731 5728 5728 5716 5732 5730 5725 5711 5702 5712 5689 5711 5722 5727 5732 5734 5734 5735 5737 5736 5734 5734 5733 5733 5733 5732 5731 5728 5725 5723 5721 5717 5712 5707 5703 5702 5702 5701 5701 5701 5699
5716 5728 5727 5723 5729 5732 5726 5736 5730 5723 5711 5700 5703 5690 5699 5716 5717 5725 5731 5733 5735 5736 5735 5733 5733 5733 5733 5732 5730 5728 5725 5722 5720 5717 5714 5710 5705 5702 5700 5699 5697 5696 5695 5694
5720 5731 5731 5729 5736 5737 5734 5726 5716 5705 5696 5683 5696 5688 5692 5706 5718 5725 5730 5732 5733 5734 5733 5732 5732 5732 5730 5729 5728 5725 5722 5719 5717 5714 5711 5707 5703 5699 5696 5694 5692 5690 5689 5688
5706 5718 5729 5733 5723 5725 5720 5697 5677 5675 5668 5674 5697 5690 5696 5720 5730 5732 5730 5730 5732 5731 5730 5728 5727 5726 5725 5724 5723 5721 5719 5715 5713 5710 5707 5704 5701 5697 5694 5691 5688 5686 5683 5682
5685 5690 5715 5725 5718 5710 5709 5696 5672 5663 5662 5672 5690 5686 5703 5728 5734 5735 5733 5731 5729 5728 5727 5726 5725 5724 5722 5720 5719 5717 5714 5711 5709 5706 5703 5700 5697 5694 5691 5689 5686 5683 5680 5679
5682 5687 5717 5725 5727 5718 5703 5694 5695 5676 5674 5667 5676 5692 5710 5724 5725 5726 5726 5725 5723 5723 5724 5724 5723 5721 5719 5717 5715 5714 5710 5707 5705 5702 5699 5696 5693 5690 5688 5685 5683 5680 5678 5676
5694 5685 5704 5718 5722 5719 5714 5702 5682 5671 5660 5655 5669 5680 5686 5706 5712 5717 5718 5718 5719 5719 5719 5719 5719 5717 5715 5714 5712 5710 5707 5703 5701 5698 5695 5692 5689 5686 5684 5681 5678 5676 5674 5672
5694 5681 5689 5701 5699 5698 5701 5696 5684 5669 5665 5654 5654 5671 5705 5708 5713 5713 5714 5716 5716 5716 5716 5715 5714 5713 5711 5708 5706 5703 5701 5698 5695 5692 5689 5686 5684 5682 5680 5677 5674 5672 5670 5668
5689 5674 5671 5687 5704 5709 5701 5695 5682 5665 5663 5659 5654 5669 5711 5712 5713 5713 5711 5712 5713 5713 5712 5711 5710 5708 5705 5702 5700 5697 5695 5692 5689 5687 5684 5681 5679 5677 5674 5672 5670 5667 5665 5663
5685 5668 5657 5666 5678 5691 5692 5692 5686 5675 5663 5655 5652 5670 5705 5706 5707 5708 5708 5707 5706 5706 5706 5704 5703 5701 5699 5697 5694 5691 5689 5686 5684 5681 5678 5675 5673 5670 5668 5666 5665 5662 5660 5658
5685 5665 5657 5656 5663 5675 5678 5684 5685 5673 5658 5657 5664 5675 5691 5696 5698 5700 5700 5701 5700 5700 5700 5698 5696 5695 5693 5691 5688 5685 5682 5680 5678 5675 5672 5668 5666 5665 5663 5661 5660 5657 5655 5652
5675 5661 5664 5668 5674 5676 5677 5679 5681 5675 5670 5664 5671 5677 5686 5691 5695 5697 5697 5696 5695 5694 5693 5693 5691 5688 5686 5684 5682 5679 5677 5675 5672 5669 5665 5662 5661 5660 5658 5656 5654 5652 5649 5647
5662 5658 5661 5663 5672 5673 5671 5676 5677 5676 5676 5673 5674 5677 5691 5692 5691 5690 5690 5691 5689 5689 5688 5688 5686 5684 5681 5679 5676 5673 5670 5668 5666 5662 5659 5657 5655 5653 5652 5650 5649 5646 5643 5641
5650 5649 5646 5644 5657 5660 5657 5673 5675 5674 5678 5676 5670 5679 5685 5682 5684 5685 5686 5686 5685 5685 5685 5682 5681 5679 5677 5674 5672 5668 5665 5662 5659 5656 5654 5651 5649 5647 5646 5645 5642 5639 5637 5634
5645 5640 5633 5633 5642 5636 5662 5681 5681 5676 5676 5679 5679 5680 5681 5682 5683 5685 5685 5683 5681 5680 5679 5678 5676 5674 5672 5670 5667 5664 5660 5656 5653 5650 5648 5646 5643 5641 5639 5637 5634 5632 5630 5627
5647 5638 5627 5623 5625 5637 5658 5672 5673 5668 5664 5671 5671 5673 5674 5676 5675 5674 5680 5680 5679 5678 5677 5675 5673 5670 5667 5663 5661 5657 5653 5650 5647 5644 5642 5640 5638 5635 5633 5630 5628 5625 5623 5620
5642 5636 5624 5617 5620 5622 5649 5668 5675 5666 5652 5664 5666 5665 5665 5664 5655 5661 5672 5673 5673 5672 5671 5669 5667 5664 5660 5657 5654 5650 5646 5643 5641 5639 5637 5634 5632 5629 5627 5624 5621 5619 5617 5614
5627 5622 5617 5614 5614 5626 5649 5661 5663 5642 5644 5658 5660 5661 5659 5656 5658 5662 5666 5666 5666 5666 5665 5663 5659 5656 5653 5650 5647 5642 5639 5637 5635 5633 5630 5627 5625 5623 5620 5617 5614 5612 5610 5607
5619 5613 5611 5609 5608 5620 5648 5648 5640 5641 5650 5652 5654 5655 5655 5655 5656 5657 5658 5658 5657 5656 5656 5654 5650 5647 5645 5642 5639 5635 5632 5631 5628 5625 5622 5619 5617 5615 5613 5609 5606 5604 5602 5598
5613 5616 5614 5615 5620 5633 5641 5642 5645 5645 5643 5645 5646 5648 5649 5648 5648 5649 5649 5649 5649 5648 5647 5646 5642 5638 5635 5633 5631 5627 5625 5623 5620 5617 5613 5611 5609 5606 5604 5602 5599 5596 5593 5590
5609 5615 5612 5612 5621 5628 5632 5636 5638 5639 5639 5641 5641 5642 5641 5640 5640 5639 5639 5639 5639 5638 5637 5636 5633 5628 5625 5623 5623 5621 5618 5616 5612 5608 5605 5603 5600 5598 5596 5594 5591 5588 5585 5582
5601 5605 5602 5604 5614 5619 5624 5627 5629 5631 5633 5633 5634 5634 5634 5633 5631 5630 5630 5630 5629 5628 5627 5626 5624 5620 5617 5615 5613 5612 5610 5607 5603 5600 5597 5594 5592 5589 5587 5585 5582 5580 5578 5576
5595 5596 5594 5599 5609 5608 5614 5621 5624 5623 5624 5625 5626 5625 5625 5626 5624 5622 5621 5621 5619 5618 5617 5615 5613 5611 5608 5606 5604 5603 5601 5598 5595 5591 5588 5585 5582 5580 5577 5575 5573 5572 5570 5569